Time,TemperatureF,DewpointF,PressureIn,WindDirection,WindDirectionDegrees,WindSpeedMPH,WindSpeedGustMPH,Humidity,HourlyPrecipIn,Conditions,Clouds,dailyrainin,SoftwareType,DateUTC
2013-01-23 00:00:00,10.2,3.6,30.30,East,90,0.0,0.0,74,0.00,,,0.00,WUHU21623XXSP,2013-01-23 05:00:00,
2013-01-23 00:01:00,10.2,3.6,30.30,East,90,0.0,0.0,74,0.00,,,0.00,WUHU21623XXSP,2013-01-23 05:01:00,
2013-01-23 00:03:00,10.2,3.6,30.30,East,90,0.0,0.0,74,0.00,,,0.00,WUHU21623XXSP,2013-01-23 05:03:00,
2013-01-23 00:16:00,10.2,3.6,30.30,East,90,0.0,0.0,74,0.00,,,0.00,WUHU21623XXSP,2013-01-23 05:16:00,
2013-01-23 00:21:00,9.7,3.1,30.30,East,90,0.0,0.0,74,0.00,,,0.00,WUHU21623XXSP,2013-01-23 05:21:00,
2013-01-23 00:26:00,9.5,2.9,30.30,East,90,0.0,0.0,74,0.00,,,0.00,WUHU21623XXSP,2013-01-23 05:26:00,
2013-01-23 00:31:00,9.7,3.5,30.29,East,90,0.0,0.0,75,0.00,,,0.00,WUHU21623XXSP,2013-01-23 05:31:00,
2013-01-23 00:36:00,10.0,3.7,30.29,East,90,0.0,0.0,75,0.00,,,0.00,WUHU21623XXSP,2013-01-23 05:36:00,
2013-01-23 00:41:00,9.7,3.5,30.29,ESE,112,0.0,0.0,75,0.00,,,0.00,WUHU21623XXSP,2013-01-23 05:41:00,
2013-01-23 00:46:00,10.0,3.7,30.29,ESE,112,0.0,0.0,75,0.00,,,0.00,WUHU21623XXSP,2013-01-23 05:46:00,
2013-01-23 00:51:00,9.5,3.3,30.29,ESE,112,0.0,0.0,75,0.00,,,0.00,WUHU21623XXSP,2013-01-23 05:51:00,
2013-01-23 00:56:00,9.3,3.4,30.29,ESE,112,0.0,0.0,76,0.00,,,0.00,WUHU21623XXSP,2013-01-23 05:56:00,
2013-01-23 01:01:00,9.1,3.2,30.29,ESE,112,0.0,0.0,76,0.00,,,0.00,WUHU21623XXSP,2013-01-23 06:01:00,
2013-01-23 01:06:00,8.6,2.7,30.29,ESE,112,0.0,0.0,76,0.00,,,0.00,WUHU21623XXSP,2013-01-23 06:06:00,
2013-01-23 01:11:00,8.8,3.2,30.30,ESE,112,0.0,0.0,77,0.00,,,0.00,WUHU21623XXSP,2013-01-23 06:11:00,
2013-01-23 01:16:00,9.1,3.8,30.30,ESE,112,0.0,0.0,79,0.00,,,0.00,WUHU21623XXSP,2013-01-23 06:16:00,
2013-01-23 01:21:00,9.0,3.4,30.30,ESE,112,0.0,0.0,77,0.00,,,0.00,WUHU21623XXSP,2013-01-23 06:21:00,
2013-01-23 01:26:00,8.6,3.0,30.30,ESE,112,0.0,0.0,77,0.00,,,0.00,WUHU21623XXSP,2013-01-23 06:26:00,
2013-01-23 01:31:00,8.8,3.2,30.30,ESE,112,0.0,0.0,77,0.00,,,0.00,WUHU21623XXSP,2013-01-23 06:31:00,
2013-01-23 01:36:00,8.4,2.8,30.30,ESE,112,0.0,0.0,77,0.00,,,0.00,WUHU21623XXSP,2013-01-23 06:36:00,
2013-01-23 01:41:00,8.4,2.8,30.30,ESE,112,0.0,0.0,77,0.00,,,0.00,WUHU21623XXSP,2013-01-23 06:41:00,
2013-01-23 01:47:00,8.2,2.9,30.30,ESE,112,0.0,0.0,79,0.00,,,0.00,WUHU21623XXSP,2013-01-23 06:47:00,
2013-01-23 01:52:00,7.9,2.6,30.30,ESE,112,0.0,0.0,79,0.00,,,0.00,WUHU21623XXSP,2013-01-23 06:52:00,
2013-01-23 01:57:00,8.1,2.8,30.30,ESE,112,0.0,0.0,79,0.00,,,0.00,WUHU21623XXSP,2013-01-23 06:57:00,
2013-01-23 02:02:00,8.2,3.2,30.30,ESE,112,0.0,0.0,80,0.00,,,0.00,WUHU21623XXSP,2013-01-23 07:02:00,
2013-01-23 02:07:00,8.2,3.2,30.30,ESE,112,0.0,0.0,80,0.00,,,0.00,WUHU21623XXSP,2013-01-23 07:07:00,
2013-01-23 02:12:00,7.9,2.9,30.30,ESE,112,0.0,0.0,80,0.00,,,0.00,WUHU21623XXSP,2013-01-23 07:12:00,
2013-01-23 02:17:00,7.7,2.7,30.31,ESE,112,0.0,0.0,80,0.00,,,0.00,WUHU21623XXSP,2013-01-23 07:17:00,
2013-01-23 02:22:00,7.7,2.7,30.31,ESE,112,0.0,0.0,80,0.00,,,0.00,WUHU21623XXSP,2013-01-23 07:22:00,
2013-01-23 02:27:00,7.5,2.8,30.30,ESE,112,0.0,0.0,81,0.00,,,0.00,WUHU21623XXSP,2013-01-23 07:27:00,
2013-01-23 02:32:00,7.2,2.2,30.31,ESE,112,0.0,0.0,80,0.00,,,0.00,WUHU21623XXSP,2013-01-23 07:32:00,
2013-01-23 02:37:00,7.3,2.6,30.31,ESE,112,0.0,0.0,81,0.00,,,0.00,WUHU21623XXSP,2013-01-23 07:37:00,
2013-01-23 02:42:00,7.7,3.3,30.31,ESE,112,0.0,0.0,82,0.00,,,0.00,WUHU21623XXSP,2013-01-23 07:42:00,
2013-01-23 02:47:00,7.9,3.5,30.31,ESE,112,0.0,0.0,82,0.00,,,0.00,WUHU21623XXSP,2013-01-23 07:47:00,
2013-01-23 02:52:00,7.5,2.8,30.31,ESE,112,0.0,0.0,81,0.00,,,0.00,WUHU21623XXSP,2013-01-23 07:52:00,
2013-01-23 02:57:00,6.4,1.7,30.31,ESE,112,0.0,0.0,81,0.00,,,0.00,WUHU21623XXSP,2013-01-23 07:57:00,
2013-01-23 03:02:00,6.4,2.0,30.31,ESE,112,0.0,0.0,82,0.00,,,0.00,WUHU21623XXSP,2013-01-23 08:02:00,
2013-01-23 03:07:00,6.4,2.0,30.32,ESE,112,0.0,0.0,82,0.00,,,0.00,WUHU21623XXSP,2013-01-23 08:07:00,
2013-01-23 03:12:00,6.4,2.0,30.31,ESE,112,0.0,0.0,82,0.00,,,0.00,WUHU21623XXSP,2013-01-23 08:12:00,
2013-01-23 03:17:00,6.6,2.2,30.31,ESE,112,0.0,0.0,82,0.00,,,0.00,WUHU21623XXSP,2013-01-23 08:17:00,
2013-01-23 03:22:00,6.6,2.5,30.32,ESE,112,0.0,0.0,83,0.00,,,0.00,WUHU21623XXSP,2013-01-23 08:22:00,
2013-01-23 03:27:00,6.4,2.3,30.32,ESE,112,0.0,0.0,83,0.00,,,0.00,WUHU21623XXSP,2013-01-23 08:27:00,
2013-01-23 03:32:00,6.1,2.0,30.32,ESE,112,0.0,0.0,83,0.00,,,0.00,WUHU21623XXSP,2013-01-23 08:32:00,
2013-01-23 03:37:00,5.7,1.6,30.31,ESE,112,0.0,0.0,83,0.00,,,0.00,WUHU21623XXSP,2013-01-23 08:37:00,
2013-01-23 03:43:00,5.7,1.6,30.31,ESE,112,0.0,0.0,83,0.00,,,0.00,WUHU21623XXSP,2013-01-23 08:43:00,
2013-01-23 03:48:00,5.9,1.8,30.31,ESE,112,0.0,0.0,83,0.00,,,0.00,WUHU21623XXSP,2013-01-23 08:48:00,
2013-01-23 03:53:00,6.1,2.3,30.31,ESE,112,0.0,0.0,84,0.00,,,0.00,WUHU21623XXSP,2013-01-23 08:53:00,
2013-01-23 03:58:00,6.6,2.8,30.31,ESE,112,0.0,0.0,84,0.00,,,0.00,WUHU21623XXSP,2013-01-23 08:58:00,
2013-01-23 04:03:00,6.6,2.8,30.31,ESE,112,0.0,0.0,84,0.00,,,0.00,WUHU21623XXSP,2013-01-23 09:03:00,
2013-01-23 04:08:00,7.0,3.4,30.31,ESE,112,0.0,0.0,85,0.00,,,0.00,WUHU21623XXSP,2013-01-23 09:08:00,
2013-01-23 04:12:00,6.8,2.9,30.32,ESE,112,0.0,0.0,84,0.00,,,0.00,WUHU21623XXSP,2013-01-23 09:12:00,
2013-01-23 04:17:00,6.6,2.8,30.31,ESE,112,0.0,0.0,84,0.00,,,0.00,WUHU21623XXSP,2013-01-23 09:17:00,
2013-01-23 04:23:00,7.0,3.4,30.31,ESE,112,0.0,0.0,85,0.00,,,0.00,WUHU21623XXSP,2013-01-23 09:23:00,
2013-01-23 04:28:00,6.8,3.2,30.31,ESE,112,0.0,0.0,85,0.00,,,0.00,WUHU21623XXSP,2013-01-23 09:28:00,
2013-01-23 04:33:00,7.0,3.4,30.30,ESE,112,0.0,0.0,85,0.00,,,0.00,WUHU21623XXSP,2013-01-23 09:33:00,
2013-01-23 04:38:00,6.6,3.0,30.30,ESE,112,0.0,0.0,85,0.00,,,0.00,WUHU21623XXSP,2013-01-23 09:38:00,
2013-01-23 04:43:00,6.4,2.6,30.31,ESE,112,0.0,0.0,84,0.00,,,0.00,WUHU21623XXSP,2013-01-23 09:43:00,
2013-01-23 04:48:00,6.4,2.6,30.31,ESE,112,0.0,0.0,84,0.00,,,0.00,WUHU21623XXSP,2013-01-23 09:48:00,
2013-01-23 04:53:00,6.6,3.0,30.31,ESE,112,0.0,0.0,85,0.00,,,0.00,WUHU21623XXSP,2013-01-23 09:53:00,
2013-01-23 04:58:00,6.6,3.0,30.31,ESE,112,0.0,0.0,85,0.00,,,0.00,WUHU21623XXSP,2013-01-23 09:58:00,
2013-01-23 05:03:00,6.6,3.0,30.31,ESE,112,0.0,0.0,85,0.00,,,0.00,WUHU21623XXSP,2013-01-23 10:03:00,
2013-01-23 05:08:00,6.4,3.1,30.31,ESE,112,0.0,0.0,86,0.00,,,0.00,WUHU21623XXSP,2013-01-23 10:08:00,
2013-01-23 05:13:00,6.6,3.3,30.30,ESE,112,0.0,0.0,86,0.00,,,0.00,WUHU21623XXSP,2013-01-23 10:13:00,
2013-01-23 05:18:00,6.6,3.3,30.30,ESE,112,0.0,0.0,86,0.00,,,0.00,WUHU21623XXSP,2013-01-23 10:18:00,
2013-01-23 05:23:00,6.6,3.3,30.31,ESE,112,0.0,0.0,86,0.00,,,0.00,WUHU21623XXSP,2013-01-23 10:23:00,
2013-01-23 05:28:00,6.6,3.3,30.31,ESE,112,0.0,0.0,86,0.00,,,0.00,WUHU21623XXSP,2013-01-23 10:28:00,
2013-01-23 05:33:00,6.6,3.3,30.31,ESE,112,0.0,0.0,86,0.00,,,0.00,WUHU21623XXSP,2013-01-23 10:33:00,
2013-01-23 05:38:00,7.0,3.7,30.31,ESE,112,0.0,0.0,86,0.00,,,0.00,WUHU21623XXSP,2013-01-23 10:38:00,
2013-01-23 05:43:00,7.2,3.9,30.31,ESE,112,0.0,0.0,86,0.00,,,0.00,WUHU21623XXSP,2013-01-23 10:43:00,
2013-01-23 05:48:00,7.2,3.9,30.31,ESE,112,0.0,0.0,86,0.00,,,0.00,WUHU21623XXSP,2013-01-23 10:48:00,
2013-01-23 05:53:00,7.3,4.0,30.31,ESE,112,0.0,0.0,86,0.00,,,0.00,WUHU21623XXSP,2013-01-23 10:53:00,
2013-01-23 05:58:00,7.5,4.2,30.31,ESE,112,0.0,0.0,86,0.00,,,0.00,WUHU21623XXSP,2013-01-23 10:58:00,
2013-01-23 06:03:00,7.5,4.2,30.31,ESE,112,0.0,0.0,86,0.00,,,0.00,WUHU21623XXSP,2013-01-23 11:03:00,
2013-01-23 06:08:00,7.3,4.0,30.31,ESE,112,0.0,0.0,86,0.00,,,0.00,WUHU21623XXSP,2013-01-23 11:08:00,
2013-01-23 06:13:00,7.0,3.7,30.31,ESE,112,0.0,0.0,86,0.00,,,0.00,WUHU21623XXSP,2013-01-23 11:13:00,
2013-01-23 06:18:00,7.0,3.7,30.31,ESE,112,0.0,0.0,86,0.00,,,0.00,WUHU21623XXSP,2013-01-23 11:18:00,
2013-01-23 06:23:00,6.6,3.3,30.32,ESE,112,0.0,0.0,86,0.00,,,0.00,WUHU21623XXSP,2013-01-23 11:23:00,
2013-01-23 06:28:00,6.4,3.1,30.31,ESE,112,0.0,0.0,86,0.00,,,0.00,WUHU21623XXSP,2013-01-23 11:28:00,
2013-01-23 06:33:00,6.4,3.4,30.31,ESE,112,0.0,0.0,87,0.00,,,0.00,WUHU21623XXSP,2013-01-23 11:33:00,
2013-01-23 06:38:00,6.6,3.6,30.31,ESE,112,0.0,0.0,87,0.00,,,0.00,WUHU21623XXSP,2013-01-23 11:38:00,
2013-01-23 06:43:00,6.1,3.1,30.32,ESE,112,0.0,0.0,87,0.00,,,0.00,WUHU21623XXSP,2013-01-23 11:43:00,
2013-01-23 06:48:00,5.7,2.4,30.31,ESE,112,0.0,0.0,86,0.00,,,0.00,WUHU21623XXSP,2013-01-23 11:48:00,
2013-01-23 06:53:00,5.5,2.2,30.31,ESE,112,0.0,0.0,86,0.00,,,0.00,WUHU21623XXSP,2013-01-23 11:53:00,
2013-01-23 06:58:00,5.5,2.2,30.32,ESE,112,0.0,0.0,86,0.00,,,0.00,WUHU21623XXSP,2013-01-23 11:58:00,
2013-01-23 07:03:00,5.5,2.2,30.32,ESE,112,0.0,0.0,86,0.00,,,0.00,WUHU21623XXSP,2013-01-23 12:03:00,
2013-01-23 07:08:00,5.0,1.7,30.32,ESE,112,0.0,0.0,86,0.00,,,0.00,WUHU21623XXSP,2013-01-23 12:08:00,
2013-01-23 07:13:00,4.8,1.8,30.32,ESE,112,0.0,0.0,87,0.00,,,0.00,WUHU21623XXSP,2013-01-23 12:13:00,
2013-01-23 07:18:00,4.8,1.8,30.33,ESE,112,0.0,0.0,87,0.00,,,0.00,WUHU21623XXSP,2013-01-23 12:18:00,
2013-01-23 07:23:00,5.2,2.2,30.33,ESE,112,0.0,0.0,87,0.00,,,0.00,WUHU21623XXSP,2013-01-23 12:23:00,
2013-01-23 07:28:00,5.5,2.7,30.33,ESE,112,0.0,0.0,88,0.00,,,0.00,WUHU21623XXSP,2013-01-23 12:28:00,
2013-01-23 07:33:00,5.5,2.7,30.33,ESE,112,0.0,0.0,88,0.00,,,0.00,WUHU21623XXSP,2013-01-23 12:33:00,
2013-01-23 07:38:00,5.4,2.4,30.33,ESE,112,0.0,0.0,87,0.00,,,0.00,WUHU21623XXSP,2013-01-23 12:38:00,
2013-01-23 07:43:00,5.2,2.2,30.33,ESE,112,0.0,0.0,87,0.00,,,0.00,WUHU21623XXSP,2013-01-23 12:43:00,
2013-01-23 07:48:00,5.2,2.2,30.33,ESE,112,0.0,0.0,87,0.00,,,0.00,WUHU21623XXSP,2013-01-23 12:48:00,
2013-01-23 07:53:00,5.4,2.4,30.33,ESE,112,0.0,0.0,87,0.00,,,0.00,WUHU21623XXSP,2013-01-23 12:53:00,
2013-01-23 07:58:00,5.5,2.5,30.33,ESE,112,0.0,0.0,87,0.00,,,0.00,WUHU21623XXSP,2013-01-23 12:58:00,
2013-01-23 08:03:00,5.5,2.5,30.32,ESE,112,0.0,0.0,87,0.00,,,0.00,WUHU21623XXSP,2013-01-23 13:03:00,
2013-01-23 08:08:00,5.9,2.9,30.33,ESE,112,0.0,0.0,87,0.00,,,0.00,WUHU21623XXSP,2013-01-23 13:08:00,
2013-01-23 08:13:00,6.4,3.6,30.33,ESE,112,0.0,0.0,88,0.00,,,0.00,WUHU21623XXSP,2013-01-23 13:13:00,
2013-01-23 08:18:00,7.5,4.7,30.33,ESE,112,0.0,0.0,88,0.00,,,0.00,WUHU21623XXSP,2013-01-23 13:18:00,
2013-01-23 08:23:00,9.7,6.9,30.32,ESE,112,0.0,0.0,88,0.00,,,0.00,WUHU21623XXSP,2013-01-23 13:23:00,
2013-01-23 08:28:00,11.1,8.3,30.33,ESE,112,0.0,0.0,88,0.00,,,0.00,WUHU21623XXSP,2013-01-23 13:28:00,
2013-01-23 08:33:00,12.0,8.9,30.33,ESE,112,0.0,0.0,87,0.00,,,0.00,WUHU21623XXSP,2013-01-23 13:33:00,
2013-01-23 08:38:00,12.4,8.7,30.33,ESE,112,0.0,0.0,85,0.00,,,0.00,WUHU21623XXSP,2013-01-23 13:38:00,
2013-01-23 08:43:00,12.6,8.9,30.33,ESE,112,0.0,0.0,85,0.00,,,0.00,WUHU21623XXSP,2013-01-23 13:43:00,
2013-01-23 08:48:00,12.9,9.2,30.33,ESE,112,0.0,0.0,85,0.00,,,0.00,WUHU21623XXSP,2013-01-23 13:48:00,
2013-01-23 08:53:00,14.2,10.2,30.33,ESE,112,0.0,0.0,84,0.00,,,0.00,WUHU21623XXSP,2013-01-23 13:53:00,
2013-01-23 08:58:00,15.6,11.3,30.33,East,90,0.0,0.0,83,0.00,,,0.00,WUHU21623XXSP,2013-01-23 13:58:00,
2013-01-23 09:03:00,17.2,12.9,30.33,East,90,0.0,0.0,83,0.00,,,0.00,WUHU21623XXSP,2013-01-23 14:03:00,
2013-01-23 09:08:00,18.5,12.9,30.33,ESE,112,0.0,0.0,79,0.00,,,0.00,WUHU21623XXSP,2013-01-23 14:08:00,
2013-01-23 09:13:00,18.3,12.1,30.33,East,90,0.0,0.0,76,0.00,,,0.00,WUHU21623XXSP,2013-01-23 14:13:00,
2013-01-23 09:18:00,17.8,11.3,30.33,ESE,112,0.0,0.0,75,0.00,,,0.00,WUHU21623XXSP,2013-01-23 14:18:00,
2013-01-23 09:23:00,18.0,11.8,30.33,East,90,0.0,0.0,76,0.00,,,0.00,WUHU21623XXSP,2013-01-23 14:23:00,
2013-01-23 09:28:00,18.3,11.8,30.33,East,90,0.0,0.0,75,0.00,,,0.00,WUHU21623XXSP,2013-01-23 14:28:00,
2013-01-23 09:33:00,18.7,12.2,30.33,East,90,0.0,0.0,75,0.00,,,0.00,WUHU21623XXSP,2013-01-23 14:33:00,
2013-01-23 09:38:00,19.2,12.3,30.33,ENE,67,0.0,0.0,74,0.00,,,0.00,WUHU21623XXSP,2013-01-23 14:38:00,
2013-01-23 09:43:00,19.4,11.9,30.33,North,0,0.0,0.0,72,0.00,,,0.00,WUHU21623XXSP,2013-01-23 14:43:00,
2013-01-23 09:48:00,19.6,11.7,30.33,NE,45,0.0,0.0,71,0.00,,,0.00,WUHU21623XXSP,2013-01-23 14:48:00,
2013-01-23 09:53:00,19.2,10.6,30.33,North,0,0.0,0.0,69,0.00,,,0.00,WUHU21623XXSP,2013-01-23 14:53:00,
2013-01-23 09:58:00,19.2,10.6,30.33,West,270,0.0,0.0,69,0.00,,,0.00,WUHU21623XXSP,2013-01-23 14:58:00,
2013-01-23 10:03:00,19.2,10.3,30.33,NW,315,0.0,0.0,68,0.00,,,0.00,WUHU21623XXSP,2013-01-23 15:03:00,
2013-01-23 10:08:00,18.3,8.7,30.33,West,270,0.0,0.0,65,0.00,,,0.00,WUHU21623XXSP,2013-01-23 15:08:00,
2013-01-23 10:13:00,18.3,9.1,30.33,NNW,337,0.0,0.0,67,0.00,,,0.00,WUHU21623XXSP,2013-01-23 15:13:00,
2013-01-23 10:18:00,18.5,9.2,30.33,NNE,22,0.0,0.0,67,0.00,,,0.00,WUHU21623XXSP,2013-01-23 15:18:00,
2013-01-23 10:23:00,19.2,9.9,30.33,East,90,0.0,0.0,67,0.00,,,0.00,WUHU21623XXSP,2013-01-23 15:23:00,
2013-01-23 10:28:00,19.6,9.9,30.33,NNW,337,0.0,0.0,65,0.00,,,0.00,WUHU21623XXSP,2013-01-23 15:28:00,
2013-01-23 10:33:00,20.1,10.0,30.33,West,270,0.0,0.0,64,0.00,,,0.00,WUHU21623XXSP,2013-01-23 15:33:00,
2013-01-23 10:38:00,19.6,8.8,30.33,SSE,157,0.0,0.0,62,0.00,,,0.00,WUHU21623XXSP,2013-01-23 15:38:00,
2013-01-23 10:43:00,19.9,9.1,30.33,West,270,0.0,0.0,62,0.00,,,0.00,WUHU21623XXSP,2013-01-23 15:43:00,
2013-01-23 10:48:00,19.9,9.1,30.33,NW,315,5.6,5.6,62,0.00,,,0.00,WUHU21623XXSP,2013-01-23 15:48:00,
2013-01-23 10:53:00,20.1,9.6,30.32,WNW,292,5.6,5.6,63,0.00,,,0.00,WUHU21623XXSP,2013-01-23 15:53:00,
2013-01-23 10:58:00,19.9,8.7,30.32,NW,315,3.4,5.6,61,0.00,,,0.00,WUHU21623XXSP,2013-01-23 15:58:00,
2013-01-23 11:03:00,20.1,9.3,30.31,West,270,0.0,3.6,62,0.00,,,0.00,WUHU21623XXSP,2013-01-23 16:03:00,
2013-01-23 11:08:00,20.3,9.0,30.31,WSW,247,0.0,0.0,61,0.00,,,0.00,WUHU21623XXSP,2013-01-23 16:08:00,
2013-01-23 11:13:00,19.9,8.3,30.31,WNW,292,0.0,0.0,60,0.00,,,0.00,WUHU21623XXSP,2013-01-23 16:13:00,
2013-01-23 11:18:00,20.1,8.9,30.31,WSW,247,0.0,0.0,61,0.00,,,0.00,WUHU21623XXSP,2013-01-23 16:18:00,
2013-01-23 11:23:00,20.5,8.8,30.31,West,270,0.0,0.0,60,0.00,,,0.00,WUHU21623XXSP,2013-01-23 16:23:00,
2013-01-23 11:28:00,20.5,8.4,30.31,West,270,0.0,0.0,59,0.00,,,0.00,WUHU21623XXSP,2013-01-23 16:28:00,
2013-01-23 11:33:00,20.1,7.6,30.30,West,270,0.0,3.1,58,0.00,,,0.00,WUHU21623XXSP,2013-01-23 16:33:00,
2013-01-23 11:38:00,20.3,7.8,30.30,West,270,0.0,3.1,58,0.00,,,0.00,WUHU21623XXSP,2013-01-23 16:38:00,
2013-01-23 11:43:00,20.5,7.6,30.29,West,270,3.6,3.6,57,0.00,,,0.00,WUHU21623XXSP,2013-01-23 16:43:00,
2013-01-23 11:48:00,20.8,8.3,30.30,WSW,247,3.8,3.8,58,0.00,,,0.00,WUHU21623XXSP,2013-01-23 16:48:00,
2013-01-23 11:53:00,21.6,9.0,30.28,WSW,247,3.8,3.8,58,0.00,,,0.00,WUHU21623XXSP,2013-01-23 16:53:00,
2013-01-23 11:58:00,21.9,8.4,30.28,West,270,1.6,3.8,56,0.00,,,0.00,WUHU21623XXSP,2013-01-23 16:58:00,
2013-01-23 12:03:00,21.9,8.4,30.28,WSW,247,2.7,3.8,56,0.00,,,0.00,WUHU21623XXSP,2013-01-23 17:03:00,
2013-01-23 12:08:00,22.3,7.9,30.28,West,270,0.0,2.7,53,0.00,,,0.00,WUHU21623XXSP,2013-01-23 17:08:00,
2013-01-23 12:13:00,21.9,7.1,30.28,West,270,5.8,5.8,52,0.00,,,0.00,WUHU21623XXSP,2013-01-23 17:13:00,
2013-01-23 12:18:00,21.6,6.8,30.28,WSW,247,4.5,5.8,52,0.00,,,0.00,WUHU21623XXSP,2013-01-23 17:18:00,
2013-01-23 12:23:00,21.9,7.5,30.27,WNW,292,0.0,4.5,53,0.00,,,0.00,WUHU21623XXSP,2013-01-23 17:23:00,
2013-01-23 12:28:00,22.6,7.7,30.27,South,180,3.4,4.5,52,0.00,,,0.00,WUHU21623XXSP,2013-01-23 17:28:00,
2013-01-23 12:33:00,23.0,7.6,30.26,SSW,202,1.3,3.4,51,0.00,,,0.00,WUHU21623XXSP,2013-01-23 17:33:00,
2013-01-23 12:38:00,23.0,7.6,30.25,West,270,2.9,3.4,51,0.00,,,0.00,WUHU21623XXSP,2013-01-23 17:38:00,
2013-01-23 12:43:00,23.0,6.6,30.25,West,270,0.0,2.9,49,0.00,,,0.00,WUHU21623XXSP,2013-01-23 17:43:00,
2013-01-23 12:48:00,23.0,6.6,30.24,West,270,5.6,5.6,49,0.00,,,0.00,WUHU21623XXSP,2013-01-23 17:48:00,
2013-01-23 12:53:00,23.2,6.8,30.24,WSW,247,3.1,5.6,49,0.00,,,0.00,WUHU21623XXSP,2013-01-23 17:53:00,
2013-01-23 12:58:00,23.5,7.1,30.24,WNW,292,2.5,5.6,49,0.00,,,0.00,WUHU21623XXSP,2013-01-23 17:58:00,
2013-01-23 13:03:00,23.5,7.1,30.24,SW,225,4.0,4.0,49,0.00,,,0.00,WUHU21623XXSP,2013-01-23 18:03:00,
2013-01-23 13:08:00,22.8,5.4,30.24,West,270,4.7,4.7,47,0.00,,,0.00,WUHU21623XXSP,2013-01-23 18:08:00,
2013-01-23 13:13:00,23.2,5.8,30.23,West,270,2.9,4.7,47,0.00,,,0.00,WUHU21623XXSP,2013-01-23 18:13:00,
2013-01-23 13:18:00,23.2,4.1,30.23,SW,225,5.4,6.9,44,0.00,,,0.00,WUHU21623XXSP,2013-01-23 18:18:00,
2013-01-23 13:23:00,23.4,4.3,30.23,WSW,247,3.6,6.9,44,0.00,,,0.00,WUHU21623XXSP,2013-01-23 18:23:00,
2013-01-23 13:28:00,23.5,4.4,30.23,WSW,247,0.0,5.4,44,0.00,,,0.00,WUHU21623XXSP,2013-01-23 18:28:00,
2013-01-23 13:33:00,23.9,5.3,30.23,WNW,292,0.0,1.8,45,0.00,,,0.00,WUHU21623XXSP,2013-01-23 18:33:00,
2013-01-23 13:38:00,24.8,5.0,30.22,West,270,1.3,1.8,43,0.00,,,0.00,WUHU21623XXSP,2013-01-23 18:38:00,
2013-01-23 13:43:00,24.4,4.7,30.23,WSW,247,6.0,8.1,43,0.00,,,0.00,WUHU21623XXSP,2013-01-23 18:43:00,
2013-01-23 13:48:00,24.1,3.8,30.21,West,270,3.8,8.5,41,0.00,,,0.00,WUHU21623XXSP,2013-01-23 18:48:00,
2013-01-23 13:53:00,24.4,4.7,30.21,West,270,1.8,8.5,43,0.00,,,0.00,WUHU21623XXSP,2013-01-23 18:53:00,
2013-01-23 13:58:00,24.6,3.7,30.21,WSW,247,4.0,4.9,40,0.00,,,0.00,WUHU21623XXSP,2013-01-23 18:58:00,
2013-01-23 14:03:00,25.0,4.0,30.20,WSW,247,0.0,4.9,40,0.00,,,0.00,WUHU21623XXSP,2013-01-23 19:03:00,
2013-01-23 14:08:00,25.3,4.9,30.20,West,270,0.0,0.0,41,0.00,,,0.00,WUHU21623XXSP,2013-01-23 19:08:00,
2013-01-23 14:13:00,25.5,5.1,30.20,West,270,0.0,0.0,41,0.00,,,0.00,WUHU21623XXSP,2013-01-23 19:13:00,
2013-01-23 14:18:00,25.2,3.6,30.20,SW,225,0.0,4.0,39,0.00,,,0.00,WUHU21623XXSP,2013-01-23 19:18:00,
2013-01-23 14:23:00,24.8,3.3,30.20,West,270,0.0,4.0,39,0.00,,,0.00,WUHU21623XXSP,2013-01-23 19:23:00,
2013-01-23 14:28:00,24.4,2.9,30.20,WNW,292,9.4,9.4,39,0.00,,,0.00,WUHU21623XXSP,2013-01-23 19:28:00,
2013-01-23 14:33:00,24.6,3.1,30.20,South,180,1.6,9.4,39,0.00,,,0.00,WUHU21623XXSP,2013-01-23 19:33:00,
2013-01-23 14:38:00,25.0,3.4,30.20,WSW,247,0.0,1.6,39,0.00,,,0.00,WUHU21623XXSP,2013-01-23 19:38:00,
2013-01-23 14:43:00,24.6,3.1,30.19,WSW,247,0.0,0.0,39,0.00,,,0.00,WUHU21623XXSP,2013-01-23 19:43:00,
2013-01-23 14:48:00,25.0,3.4,30.19,West,270,1.8,3.6,39,0.00,,,0.00,WUHU21623XXSP,2013-01-23 19:48:00,
2013-01-23 14:53:00,24.6,3.1,30.19,WSW,247,2.7,3.6,39,0.00,,,0.00,WUHU21623XXSP,2013-01-23 19:53:00,
2013-01-23 14:58:00,24.6,3.1,30.19,WNW,292,0.0,5.4,39,0.00,,,0.00,WUHU21623XXSP,2013-01-23 19:58:00,
2013-01-23 15:03:00,24.6,3.1,30.20,WSW,247,0.0,5.4,39,0.00,,,0.00,WUHU21623XXSP,2013-01-23 20:03:00,
2013-01-23 15:08:00,24.6,3.1,30.20,NW,315,4.0,4.0,39,0.00,,,0.00,WUHU21623XXSP,2013-01-23 20:08:00,
2013-01-23 15:13:00,24.6,3.1,30.19,West,270,2.9,4.0,39,0.00,,,0.00,WUHU21623XXSP,2013-01-23 20:13:00,
2013-01-23 15:18:00,24.6,3.7,30.19,West,270,0.0,5.8,40,0.00,,,0.00,WUHU21623XXSP,2013-01-23 20:18:00,
2013-01-23 15:23:00,24.6,3.7,30.19,West,270,0.0,5.8,40,0.00,,,0.00,WUHU21623XXSP,2013-01-23 20:23:00,
2013-01-23 15:28:00,24.6,3.7,30.19,WSW,247,4.9,5.6,40,0.00,,,0.00,WUHU21623XXSP,2013-01-23 20:28:00,
2013-01-23 15:33:00,24.6,3.7,30.19,SSW,202,0.0,4.9,40,0.00,,,0.00,WUHU21623XXSP,2013-01-23 20:33:00,
2013-01-23 15:38:00,25.0,4.0,30.20,West,270,2.5,4.0,40,0.00,,,0.00,WUHU21623XXSP,2013-01-23 20:38:00,
2013-01-23 15:43:00,24.6,4.3,30.20,NW,315,0.0,2.5,41,0.00,,,0.00,WUHU21623XXSP,2013-01-23 20:43:00,
2013-01-23 15:48:00,25.0,4.6,30.20,West,270,2.9,2.9,41,0.00,,,0.00,WUHU21623XXSP,2013-01-23 20:48:00,
2013-01-23 15:53:00,24.6,4.3,30.19,WSW,247,6.7,6.7,41,0.00,,,0.00,WUHU21623XXSP,2013-01-23 20:53:00,
2013-01-23 15:58:00,24.1,5.0,30.19,West,270,2.2,6.7,44,0.00,,,0.00,WUHU21623XXSP,2013-01-23 20:58:00,
2013-01-23 16:03:00,23.5,6.6,30.19,WNW,292,4.0,6.5,48,0.00,,,0.00,WUHU21623XXSP,2013-01-23 21:03:00,
2013-01-23 16:08:00,23.4,7.0,30.19,West,270,1.8,6.5,49,0.00,,,0.00,WUHU21623XXSP,2013-01-23 21:08:00,
2013-01-23 16:13:00,23.2,7.3,30.19,West,270,3.1,5.8,50,0.00,,,0.00,WUHU21623XXSP,2013-01-23 21:13:00,
2013-01-23 16:18:00,22.8,7.4,30.19,West,270,0.0,5.8,51,0.00,,,0.00,WUHU21623XXSP,2013-01-23 21:18:00,
2013-01-23 16:23:00,22.8,8.4,30.20,WNW,292,7.8,7.8,53,0.00,,,0.00,WUHU21623XXSP,2013-01-23 21:23:00,
2013-01-23 16:28:00,22.6,8.6,30.19,West,270,2.5,7.8,55,0.00,,,0.00,WUHU21623XXSP,2013-01-23 21:28:00,
2013-01-23 16:33:00,22.5,9.4,30.18,SW,225,0.0,3.1,57,0.00,,,0.00,WUHU21623XXSP,2013-01-23 21:33:00,
2013-01-23 16:38:00,22.3,9.7,30.18,NW,315,2.5,3.6,58,0.00,,,0.00,WUHU21623XXSP,2013-01-23 21:38:00,
2013-01-23 16:43:00,22.1,9.9,30.17,West,270,4.3,5.4,59,0.00,,,0.00,WUHU21623XXSP,2013-01-23 21:43:00,
2013-01-23 16:48:00,21.9,9.7,30.18,WSW,247,0.0,5.4,59,0.00,,,0.00,WUHU21623XXSP,2013-01-23 21:48:00,
2013-01-23 16:53:00,21.9,10.1,30.18,WNW,292,0.0,0.0,60,0.00,,,0.00,WUHU21623XXSP,2013-01-23 21:53:00,
2013-01-23 16:58:00,21.7,10.0,30.17,West,270,0.0,0.0,60,0.00,,,0.00,WUHU21623XXSP,2013-01-23 21:58:00,
2013-01-23 17:03:00,21.6,10.7,30.17,West,270,0.0,0.0,62,0.00,,,0.00,WUHU21623XXSP,2013-01-23 22:03:00,
2013-01-23 17:08:00,21.6,10.7,30.17,West,270,0.0,0.0,62,0.00,,,0.00,WUHU21623XXSP,2013-01-23 22:08:00,
2013-01-23 17:13:00,21.6,11.1,30.17,West,270,0.0,0.0,63,0.00,,,0.00,WUHU21623XXSP,2013-01-23 22:13:00,
2013-01-23 17:18:00,21.4,10.9,30.17,West,270,0.0,0.0,63,0.00,,,0.00,WUHU21623XXSP,2013-01-23 22:18:00,
2013-01-23 17:23:00,21.4,11.3,30.17,WSW,247,0.0,0.0,64,0.00,,,0.00,WUHU21623XXSP,2013-01-23 22:23:00,
2013-01-23 17:28:00,21.4,11.3,30.17,WSW,247,0.0,0.0,64,0.00,,,0.00,WUHU21623XXSP,2013-01-23 22:28:00,
2013-01-23 17:33:00,21.4,11.6,30.16,West,270,0.0,0.0,65,0.00,,,0.00,WUHU21623XXSP,2013-01-23 22:33:00,
2013-01-23 17:38:00,21.4,11.6,30.16,WSW,247,0.0,0.0,65,0.00,,,0.00,WUHU21623XXSP,2013-01-23 22:38:00,
2013-01-23 17:43:00,21.4,12.0,30.16,WSW,247,0.0,0.0,67,0.00,,,0.00,WUHU21623XXSP,2013-01-23 22:43:00,
2013-01-23 17:48:00,21.4,12.0,30.16,WSW,247,0.0,0.0,67,0.00,,,0.00,WUHU21623XXSP,2013-01-23 22:48:00,
2013-01-23 17:53:00,21.4,12.4,30.15,West,270,0.0,0.0,68,0.00,,,0.00,WUHU21623XXSP,2013-01-23 22:53:00,
2013-01-23 17:58:00,21.0,12.4,30.15,West,270,0.0,0.0,69,0.00,,,0.00,WUHU21623XXSP,2013-01-23 22:58:00,
2013-01-23 18:03:00,21.0,12.4,30.15,WSW,247,0.0,0.0,69,0.00,,,0.00,WUHU21623XXSP,2013-01-23 23:03:00,
2013-01-23 18:08:00,20.8,12.2,30.15,WSW,247,0.0,0.0,69,0.00,,,0.00,WUHU21623XXSP,2013-01-23 23:08:00,
2013-01-23 18:13:00,20.8,12.2,30.15,WSW,247,0.0,0.0,69,0.00,,,0.00,WUHU21623XXSP,2013-01-23 23:13:00,
2013-01-23 18:18:00,20.8,12.5,30.14,SE,135,0.0,0.0,70,0.00,,,0.00,WUHU21623XXSP,2013-01-23 23:18:00,
2013-01-23 18:23:00,20.8,12.5,30.14,SE,135,0.0,0.0,70,0.00,,,0.00,WUHU21623XXSP,2013-01-23 23:23:00,
2013-01-23 18:28:00,20.7,12.8,30.14,SE,135,0.0,0.0,71,0.00,,,0.00,WUHU21623XXSP,2013-01-23 23:28:00,
2013-01-23 18:33:00,20.5,12.6,30.14,SE,135,0.0,0.0,71,0.00,,,0.00,WUHU21623XXSP,2013-01-23 23:33:00,
2013-01-23 18:38:00,20.5,12.6,30.14,SE,135,0.0,0.0,71,0.00,,,0.00,WUHU21623XXSP,2013-01-23 23:38:00,
2013-01-23 18:43:00,20.5,12.9,30.14,SE,135,0.0,0.0,72,0.00,,,0.00,WUHU21623XXSP,2013-01-23 23:43:00,
2013-01-23 18:48:00,20.3,12.7,30.14,SE,135,0.0,0.0,72,0.00,,,0.00,WUHU21623XXSP,2013-01-23 23:48:00,
2013-01-23 18:53:00,20.5,13.3,30.14,SE,135,0.0,0.0,73,0.00,,,0.00,WUHU21623XXSP,2013-01-23 23:53:00,
2013-01-23 18:58:00,20.3,13.1,30.14,SE,135,0.0,0.0,73,0.00,,,0.00,WUHU21623XXSP,2013-01-23 23:58:00,
2013-01-23 19:03:00,20.3,13.1,30.14,SE,135,0.0,0.0,73,0.00,,,0.00,WUHU21623XXSP,2013-01-24 00:03:00,
2013-01-23 19:08:00,20.5,13.6,30.13,SE,135,0.0,0.0,74,0.00,,,0.00,WUHU21623XXSP,2013-01-24 00:08:00,
2013-01-23 19:13:00,20.5,13.9,30.13,ESE,112,0.0,0.0,75,0.00,,,0.00,WUHU21623XXSP,2013-01-24 00:13:00,
2013-01-23 19:18:00,20.5,13.9,30.13,ESE,112,0.0,0.0,75,0.00,,,0.00,WUHU21623XXSP,2013-01-24 00:18:00,
2013-01-23 19:23:00,20.5,13.9,30.13,ESE,112,0.0,0.0,75,0.00,,,0.00,WUHU21623XXSP,2013-01-24 00:23:00,
2013-01-23 19:28:00,20.5,13.9,30.13,ESE,112,0.0,0.0,75,0.00,,,0.00,WUHU21623XXSP,2013-01-24 00:28:00,
2013-01-23 19:33:00,20.5,14.2,30.13,ESE,112,0.0,0.0,76,0.00,,,0.00,WUHU21623XXSP,2013-01-24 00:33:00,
2013-01-23 19:38:00,20.5,14.2,30.13,ESE,112,0.0,0.0,76,0.00,,,0.00,WUHU21623XXSP,2013-01-24 00:38:00,
2013-01-23 19:43:00,20.5,14.6,30.13,ESE,112,0.0,0.0,77,0.00,,,0.00,WUHU21623XXSP,2013-01-24 00:43:00,
2013-01-23 19:48:00,20.5,14.6,30.12,ESE,112,0.0,0.0,77,0.00,,,0.00,WUHU21623XXSP,2013-01-24 00:48:00,
2013-01-23 19:53:00,20.5,14.6,30.13,ESE,112,0.0,0.0,77,0.00,,,0.00,WUHU21623XXSP,2013-01-24 00:53:00,
2013-01-23 19:58:00,20.5,14.9,30.12,ESE,112,0.0,0.0,79,0.00,,,0.00,WUHU21623XXSP,2013-01-24 00:58:00,
2013-01-23 20:03:00,20.5,15.2,30.12,NE,45,0.0,0.0,80,0.00,,,0.00,WUHU21623XXSP,2013-01-24 01:03:00,
2013-01-23 20:08:00,20.5,15.2,30.12,NE,45,0.0,0.0,80,0.00,,,0.00,WUHU21623XXSP,2013-01-24 01:08:00,
2013-01-23 20:13:00,20.5,15.2,30.12,NE,45,0.0,0.0,80,0.00,,,0.00,WUHU21623XXSP,2013-01-24 01:13:00,
2013-01-23 20:18:00,20.5,15.2,30.11,NE,45,0.0,0.0,80,0.00,,,0.00,WUHU21623XXSP,2013-01-24 01:18:00,
2013-01-23 20:23:00,20.5,15.2,30.12,NE,45,0.0,0.0,80,0.00,,,0.00,WUHU21623XXSP,2013-01-24 01:23:00,
2013-01-23 20:28:00,20.5,15.2,30.11,NE,45,0.0,0.0,80,0.00,,,0.00,WUHU21623XXSP,2013-01-24 01:28:00,
2013-01-23 20:33:00,20.5,15.5,30.11,NE,45,0.0,0.0,81,0.00,,,0.00,WUHU21623XXSP,2013-01-24 01:33:00,
2013-01-23 20:38:00,20.5,15.5,30.11,NE,45,0.0,0.0,81,0.00,,,0.00,WUHU21623XXSP,2013-01-24 01:38:00,
2013-01-23 20:43:00,20.5,15.8,30.10,NE,45,0.0,0.0,82,0.00,,,0.00,WUHU21623XXSP,2013-01-24 01:43:00,
2013-01-23 20:48:00,20.5,16.1,30.10,NE,45,0.0,0.0,83,0.00,,,0.00,WUHU21623XXSP,2013-01-24 01:48:00,
2013-01-23 20:53:00,20.3,15.9,30.10,NE,45,0.0,0.0,83,0.00,,,0.00,WUHU21623XXSP,2013-01-24 01:53:00,
2013-01-23 20:58:00,20.3,15.9,30.10,NE,45,0.0,0.0,83,0.00,,,0.00,WUHU21623XXSP,2013-01-24 01:58:00,
2013-01-23 21:03:00,20.1,15.7,30.10,NE,45,0.0,0.0,83,0.00,,,0.00,WUHU21623XXSP,2013-01-24 02:03:00,
2013-01-23 21:08:00,20.1,15.7,30.10,NE,45,0.0,0.0,83,0.00,,,0.00,WUHU21623XXSP,2013-01-24 02:08:00,
2013-01-23 21:13:00,20.1,15.7,30.10,NE,45,0.0,0.0,83,0.00,,,0.00,WUHU21623XXSP,2013-01-24 02:13:00,
2013-01-23 21:18:00,20.1,16.0,30.10,NE,45,0.0,0.0,84,0.00,,,0.00,WUHU21623XXSP,2013-01-24 02:18:00,
2013-01-23 21:23:00,20.1,16.0,30.10,NE,45,0.0,0.0,84,0.00,,,0.00,WUHU21623XXSP,2013-01-24 02:23:00,
2013-01-23 21:28:00,20.1,16.0,30.10,NE,45,0.0,0.0,84,0.00,,,0.00,WUHU21623XXSP,2013-01-24 02:28:00,
2013-01-23 21:33:00,19.9,15.8,30.10,NE,45,0.0,0.0,84,0.00,,,0.00,WUHU21623XXSP,2013-01-24 02:33:00,
2013-01-23 21:38:00,20.1,16.0,30.10,NE,45,0.0,0.0,84,0.00,,,0.00,WUHU21623XXSP,2013-01-24 02:38:00,
2013-01-23 21:43:00,19.9,16.1,30.10,NE,45,0.0,0.0,85,0.00,,,0.00,WUHU21623XXSP,2013-01-24 02:43:00,
2013-01-23 21:48:00,20.1,16.3,30.10,NE,45,0.0,0.0,85,0.00,,,0.00,WUHU21623XXSP,2013-01-24 02:48:00,
2013-01-23 21:53:00,19.9,16.1,30.10,NE,45,0.0,0.0,85,0.00,,,0.00,WUHU21623XXSP,2013-01-24 02:53:00,
2013-01-23 21:58:00,19.9,16.4,30.10,NE,45,0.0,0.0,86,0.00,,,0.00,WUHU21623XXSP,2013-01-24 02:58:00,
2013-01-23 22:03:00,19.9,16.4,30.10,NE,45,0.0,0.0,86,0.00,,,0.00,WUHU21623XXSP,2013-01-24 03:03:00,
2013-01-23 22:08:00,19.9,16.4,30.10,NE,45,0.0,0.0,86,0.00,,,0.00,WUHU21623XXSP,2013-01-24 03:08:00,
2013-01-23 22:13:00,19.9,16.4,30.10,NE,45,0.0,0.0,86,0.00,,,0.00,WUHU21623XXSP,2013-01-24 03:13:00,
2013-01-23 22:18:00,19.9,16.4,30.10,NE,45,0.0,0.0,86,0.00,,,0.00,WUHU21623XXSP,2013-01-24 03:18:00,
2013-01-23 22:23:00,19.9,16.7,30.09,NE,45,0.0,0.0,87,0.00,,,0.00,WUHU21623XXSP,2013-01-24 03:23:00,
2013-01-23 22:28:00,19.9,16.7,30.09,NE,45,0.0,0.0,87,0.00,,,0.00,WUHU21623XXSP,2013-01-24 03:28:00,
2013-01-23 22:33:00,19.9,16.7,30.09,NE,45,0.0,0.0,87,0.00,,,0.00,WUHU21623XXSP,2013-01-24 03:33:00,
2013-01-23 22:38:00,19.9,16.7,30.09,NE,45,0.0,0.0,87,0.00,,,0.00,WUHU21623XXSP,2013-01-24 03:38:00,
2013-01-23 22:43:00,19.9,16.7,30.09,NE,45,0.0,0.0,87,0.00,,,0.00,WUHU21623XXSP,2013-01-24 03:43:00,
2013-01-23 22:48:00,19.9,17.0,30.08,NE,45,0.0,0.0,88,0.00,,,0.00,WUHU21623XXSP,2013-01-24 03:48:00,
2013-01-23 22:53:00,19.9,17.0,30.08,NE,45,0.0,0.0,88,0.00,,,0.00,WUHU21623XXSP,2013-01-24 03:53:00,
2013-01-23 22:58:00,19.9,17.0,30.09,NE,45,0.0,0.0,88,0.00,,,0.00,WUHU21623XXSP,2013-01-24 03:58:00,
2013-01-23 23:03:00,19.9,17.0,30.08,NE,45,0.0,0.0,88,0.00,,,0.00,WUHU21623XXSP,2013-01-24 04:03:00,
2013-01-23 23:08:00,19.9,17.0,30.08,NE,45,0.0,0.0,88,0.00,,,0.00,WUHU21623XXSP,2013-01-24 04:08:00,
2013-01-23 23:13:00,19.9,17.2,30.08,NE,45,0.0,0.0,89,0.00,,,0.00,WUHU21623XXSP,2013-01-24 04:13:00,
2013-01-23 23:18:00,19.9,17.2,30.07,NE,45,0.0,0.0,89,0.00,,,0.00,WUHU21623XXSP,2013-01-24 04:18:00,
2013-01-23 23:23:00,19.9,17.2,30.07,NE,45,0.0,0.0,89,0.00,,,0.00,WUHU21623XXSP,2013-01-24 04:23:00,
2013-01-23 23:28:00,19.9,17.2,30.07,NE,45,0.0,0.0,89,0.00,,,0.00,WUHU21623XXSP,2013-01-24 04:28:00,
2013-01-23 23:33:00,19.9,17.2,30.07,NE,45,0.0,0.0,89,0.00,,,0.00,WUHU21623XXSP,2013-01-24 04:33:00,
2013-01-23 23:38:00,19.8,17.1,30.07,NE,45,0.0,0.0,89,0.00,,,0.00,WUHU21623XXSP,2013-01-24 04:38:00,
2013-01-23 23:43:00,19.8,17.1,30.07,NE,45,0.0,0.0,89,0.00,,,0.00,WUHU21623XXSP,2013-01-24 04:43:00,
2013-01-23 23:48:00,19.6,16.9,30.07,NE,45,0.0,0.0,89,0.00,,,0.00,WUHU21623XXSP,2013-01-24 04:48:00,
2013-01-23 23:53:00,19.6,16.9,30.07,NE,45,0.0,0.0,89,0.00,,,0.00,WUHU21623XXSP,2013-01-24 04:53:00,
2013-01-23 23:58:00,19.6,16.9,30.06,NE,45,0.0,0.0,89,0.00,,,0.00,WUHU21623XXSP,2013-01-24 04:58:00,